Location: New Town
(33.2710°N, 90.7534°W)
Time: 20:25:12
(UTC+00:00)

Envisat - Pass Details

Date: 28 April 2021
Orbit: 764 x 766 km, 98.1° (Epoch: 06 May)

Event Time Altitude Azimuth Distance (km) Brightness Sun altitude
Rises 10:21:28 0° 34° (NNE) 3,232 7.4 -11.8°
Reaches altitude 10° 10:24:39 10° 55° (NE) 2,301 7.0 -11.2°
Maximum altitude 10:27:47 16° 93° (E) 1,888 6.0 -10.6°
Drops below altitude 10° 10:30:55 10° 132° (SE) 2,293 5.8 -10.0°
Sets 10:34:03 0° 153° (SSE) 3,214 6.3 -9.4°
